Flag for U.S.A. Weather past 2 weeks in Irving, Texas, U.S.A.

Now
79 °F

Clear.


Feels Like: 81 °F
Forecast: 77 / 95 °F
Wind: 9 mph from South

Location: Dallas / Fort Worth International Airport

Current Time: Aug 31, 2015 at 2:21:51 AM

Latest Report: Aug 31, 2015 at 1:53 AM


Visibility: 10 mi

Pressure: 29.92 "Hg

Humidity: 60%

Dew point: 64 °F

Location of IrvingLocation

Historic Weather in Irving — Graph

°F

Irving temperature yesterday

Maximum temperature yesterday: 96 °F (at 2:53 PM)
Minimum temperature yesterday: 76 °F (at 6:53 AM)
Average temperature yesterday: 85 °F

Past Weeks' High & Low Weather Summary

 TemperatureHumidityPressure
High98 °F (Aug 18, 3:53 PM)93% (Aug 21, 3:53 AM)30.13 "Hg (Aug 21, 3:53 AM)
Low65 °F (Aug 20, 4:59 AM)23% (Aug 26, 4:53 PM)29.66 "Hg (Aug 18, 7:53 PM)
Average84 °F56%29.93 "Hg
* Reported Aug 16 12:53 AM — Aug 31 12:53 AM, Irving, Weather by CustomWeather, © 2015

Note: Actual official high and low records may vary slightly from our data, if they occured in-between our weather recording intervals... More about our weather records

Advertising

Irving weather history for previous 24 hours

 ConditionsComfort  
Time TempWeatherWind HumidityBarometerVisibility
12:53 AM
Mon, Aug 31
80 °FPassing clouds.10 mph56%29.91 "Hg10 mi
11:53 PM
Sun, Aug 30
81 °FPassing clouds.10 mph54%29.91 "Hg10 mi
10:53 PM83 °FPassing clouds.13 mph50%29.91 "Hg10 mi
9:53 PM84 °FPassing clouds.9 mph45%29.91 "Hg10 mi
8:53 PM86 °FBroken clouds.14 mph45%29.90 "Hg10 mi
7:53 PM89 °FBroken clouds.13 mph34%29.89 "Hg10 mi
6:53 PM91 °FBroken clouds.16 mph36%29.89 "Hg10 mi
5:53 PM93 °FBroken clouds.7 mph34%29.88 "Hg10 mi
4:53 PM95 °FBroken clouds.No wind26%29.89 "Hg10 mi
3:53 PM96 °FBroken clouds.14 mph27%29.90 "Hg10 mi
2:53 PM96 °FPartly sunny.14 mph28%29.92 "Hg10 mi
1:53 PM95 °FPartly sunny.10 mph30%29.94 "Hg10 mi
12:53 PM93 °FPartly sunny.13 mph33%29.96 "Hg10 mi
11:53 AM90 °FPartly sunny.14 mph41%29.98 "Hg10 mi
10:53 AM87 °FBroken clouds.12 mph46%29.99 "Hg10 mi
9:53 AM84 °FPartly sunny.13 mph53%29.97 "Hg10 mi
8:53 AM80 °FPartly sunny.9 mph60%29.96 "Hg10 mi
7:53 AM77 °FPartly cloudy.5 mph66%29.96 "Hg10 mi
6:53 AM76 °FMostly cloudy.7 mph72%29.93 "Hg10 mi
5:53 AM77 °FOvercast.5 mph69%29.94 "Hg10 mi
4:53 AM77 °FMostly cloudy.7 mph69%29.93 "Hg10 mi
3:53 AM77 °FPassing clouds.7 mph69%29.92 "Hg10 mi
2:53 AM79 °FMostly cloudy.5 mph62%29.91 "Hg10 mi
Weather by CustomWeather, © 2015

See weather overviewHow to use our weather pages